When you browse on this site, cookies collect data to enhance your experience and personalize the content and advertising you see.
Visit our Privacy Policy to learn more. By continuing to use the site, you agree to this use of cookies and data.
  • In Hungary
  • List of Countries
  • For 7 days
  • Water Temperature
  • Weather Map
  • News
  • Weather Widgets
  • user-avatar
    Login

    Hourly Weather Santuario

    Today, 10 April, Friday

    Time Temperature Precipitation Wind Pressure Humidity
    00:00 +14°C° 0 mm 0 mps 587 mmHg 97%
    01:00 +14°C° 0 mm 0 mps 587 mmHg 97%
    02:00 +14°C° 0.1 mm 0 mps 586 mmHg 97%
    03:00 +14°C° 0.1 mm 0 mps 586 mmHg 96%
    04:00 +13°C° 0.1 mm 0 mps 586 mmHg 96%
    05:00 +14°C° 0 mm 0 mps 586 mmHg 95%
    06:00 +14°C° 0 mm 0 mps 587 mmHg 94%
    07:00 +14°C° 0 mm 0 mps 587 mmHg 93%
    08:00 +16°C° 0.1 mm 0 mps 588 mmHg 82%
    09:00 +21°C° 0.1 mm 1 mps 589 mmHg 72%
    10:00 +23°C° 0.1 mm 1 mps 590 mmHg 62%
    11:00 +23°C° 0.6 mm 1 mps 590 mmHg 64%
    12:00 +23°C° 0.6 mm 1 mps 589 mmHg 66%
    13:00 +23°C° 0.6 mm 1 mps 588 mmHg 69%
    14:00 +22°C° 1.2 mm 1 mps 588 mmHg 74%
    15:00 +22°C° 1.2 mm 1 mps 587 mmHg 79%
    16:00 +21°C° 1.2 mm 1 mps 586 mmHg 83%
    17:00 +20°C° 0.8 mm 1 mps 586 mmHg 88%
    18:00 +16°C° 0.8 mm 0 mps 586 mmHg 92%
    19:00 +15°C° 0.8 mm 0 mps 586 mmHg 96%
    20:00 +15°C° 0.9 mm 0 mps 586 mmHg 96%
    21:00 +15°C° 0.9 mm 0 mps 587 mmHg 97%
    22:00 +14°C° 0.9 mm 0 mps 587 mmHg 97%
    23:00 +14°C° 1.5 mm 0 mps 587 mmHg 97%

    Tomorrow, 11 April, Saturday

    Time Temperature Precipitation Wind Pressure Humidity
    00:00 +14°C° 1.5 mm 0 mps 587 mmHg 98%
    01:00 +14°C° 1.5 mm 0 mps 586 mmHg 98%
    02:00 +14°C° 0.6 mm 0 mps 586 mmHg 97%
    03:00 +14°C° 0.6 mm 0 mps 586 mmHg 97%
    04:00 +14°C° 0.6 mm 0 mps 586 mmHg 96%
    05:00 +14°C° 0.1 mm 0 mps 586 mmHg 95%
    06:00 +14°C° 0.1 mm 0 mps 587 mmHg 94%
    07:00 +14°C° 0.1 mm 0 mps 587 mmHg 94%
    08:00 +15°C° 0.6 mm 0 mps 588 mmHg 91%
    09:00 +17°C° 0.6 mm 0 mps 589 mmHg 88%
    10:00 +20°C° 0.6 mm 1 mps 590 mmHg 86%
    11:00 +21°C° 1.7 mm 1 mps 590 mmHg 84%
    12:00 +21°C° 1.7 mm 1 mps 589 mmHg 82%
    13:00 +22°C° 1.7 mm 1 mps 589 mmHg 80%
    14:00 +21°C° 1.6 mm 1 mps 588 mmHg 83%
    15:00 +18°C° 1.6 mm 0 mps 588 mmHg 87%
    16:00 +18°C° 1.6 mm 0 mps 587 mmHg 90%
    17:00 +16°C° 1.6 mm 0 mps 587 mmHg 92%
    18:00 +15°C° 1.6 mm 0 mps 587 mmHg 94%
    19:00 +14°C° 1.6 mm 0 mps 586 mmHg 96%
    20:00 +14°C° 1.5 mm 0 mps 587 mmHg 96%
    21:00 +14°C° 1.5 mm 0 mps 587 mmHg 96%
    22:00 +14°C° 1.5 mm 0 mps 587 mmHg 96%
    23:00 +14°C° 1.3 mm 0 mps 587 mmHg 96%

    Day after tomorrow, 12 April, Sunday

    Time Temperature Precipitation Wind Pressure Humidity
    00:00 +14°C° 1.3 mm 0 mps 587 mmHg 97%
    01:00 +14°C° 1.3 mm 0 mps 587 mmHg 97%
    02:00 +14°C° 1.5 mm 0 mps 587 mmHg 97%
    03:00 +13°C° 1.5 mm 0 mps 587 mmHg 98%
    04:00 +13°C° 1.5 mm 0 mps 586 mmHg 98%
    05:00 +13°C° 1.4 mm 0 mps 587 mmHg 97%
    06:00 +13°C° 1.4 mm 0 mps 587 mmHg 97%
    07:00 +13°C° 1.4 mm 0 mps 587 mmHg 97%
    08:00 +15°C° 0.3 mm 0 mps 588 mmHg 93%
    09:00 +16°C° 0.3 mm 0 mps 589 mmHg 89%
    10:00 +17°C° 0.3 mm 0 mps 590 mmHg 84%
    11:00 +18°C° 1 mm 0 mps 590 mmHg 84%
    12:00 +21°C° 1 mm 1 mps 589 mmHg 83%
    13:00 +21°C° 1 mm 1 mps 589 mmHg 82%
    14:00 +21°C° 1.8 mm 1 mps 588 mmHg 85%
    15:00 +20°C° 1.8 mm 1 mps 588 mmHg 87%
    16:00 +18°C° 1.8 mm 0 mps 587 mmHg 90%
    17:00 +17°C° 1.1 mm 0 mps 587 mmHg 92%
    18:00 +16°C° 1.1 mm 0 mps 587 mmHg 95%
    19:00 +14°C° 1.1 mm 0 mps 587 mmHg 97%
    20:00 +14°C° 1.5 mm 0 mps 587 mmHg 96%
    21:00 +14°C° 1.5 mm 0 mps 588 mmHg 96%
    22:00 +13°C° 1.5 mm 0 mps 588 mmHg 96%
    23:00 +13°C° 0.7 mm 0 mps 588 mmHg 96%

    13 April, Monday

    Time Temperature Precipitation Wind Pressure Humidity
    00:00 +13°C° 0.7 mm 0 mps 587 mmHg 96%
    01:00 +13°C° 0.7 mm 0 mps 587 mmHg 96%
    02:00 +13°C° 0.3 mm 0 mps 587 mmHg 96%
    03:00 +13°C° 0.3 mm 0 mps 587 mmHg 96%
    04:00 +13°C° 0.3 mm 0 mps 587 mmHg 96%
    05:00 +13°C° 0.1 mm 0 mps 587 mmHg 96%
    06:00 +14°C° 0.1 mm 0 mps 588 mmHg 95%
    07:00 +14°C° 0.1 mm 0 mps 588 mmHg 94%
    08:00 +15°C° 0.7 mm 0 mps 589 mmHg 93%
    09:00 +16°C° 0.7 mm 0 mps 590 mmHg 91%
    10:00 +20°C° 0.7 mm 1 mps 591 mmHg 89%
    11:00 +20°C° 1.5 mm 1 mps 590 mmHg 89%
    12:00 +20°C° 1.5 mm 1 mps 590 mmHg 88%
    13:00 +21°C° 1.5 mm 1 mps 589 mmHg 88%
    14:00 +20°C° 1.8 mm 1 mps 589 mmHg 90%
    15:00 +20°C° 1.8 mm 1 mps 588 mmHg 91%
    16:00 +19°C° 1.8 mm 1 mps 587 mmHg 93%
    17:00 +16°C° 1.1 mm 0 mps 587 mmHg 94%
    18:00 +15°C° 1.1 mm 0 mps 587 mmHg 95%
    19:00 +14°C° 1.1 mm 0 mps 587 mmHg 97%
    20:00 +14°C° 0.8 mm 0 mps 587 mmHg 96%
    21:00 +13°C° 0.8 mm 0 mps 588 mmHg 96%
    22:00 +13°C° 0.8 mm 0 mps 588 mmHg 96%
    23:00 +13°C° 0.2 mm 0 mps 588 mmHg 96%

    14 April, Tuesday

    Time Temperature Precipitation Wind Pressure Humidity
    00:00 +13°C° 0.2 mm 1 mps 587 mmHg 96%
    01:00 +13°C° 0.2 mm 1 mps 587 mmHg 96%
    02:00 +13°C° 0.1 mm 1 mps 587 mmHg 96%
    03:00 +12°C° 0.1 mm 0 mps 587 mmHg 96%
    04:00 +12°C° 0.1 mm 0 mps 587 mmHg 96%
    05:00 +12°C° 0.1 mm 0 mps 587 mmHg 95%
    06:00 +13°C° 0.1 mm 0 mps 588 mmHg 94%
    07:00 +13°C° 0.1 mm 0 mps 588 mmHg 93%
    08:00 +15°C° 0.3 mm 0 mps 589 mmHg 85%
    09:00 +19°C° 0.3 mm 1 mps 590 mmHg 77%
    10:00 +21°C° 0.3 mm 1 mps 591 mmHg 69%
    11:00 +21°C° 0.8 mm 1 mps 590 mmHg 73%
    12:00 +21°C° 0.8 mm 1 mps 590 mmHg 76%
    13:00 +21°C° 0.8 mm 1 mps 589 mmHg 80%
    14:00 +20°C° 1.1 mm 1 mps 588 mmHg 83%
    15:00 +20°C° 1.1 mm 1 mps 587 mmHg 87%
    16:00 +17°C° 1.1 mm 0 mps 587 mmHg 90%
    17:00 +16°C° 0.6 mm 0 mps 587 mmHg 93%
    18:00 +15°C° 0.6 mm 0 mps 586 mmHg 95%
    19:00 +13°C° 0.6 mm 0 mps 586 mmHg 98%
    20:00 +13°C° 0.3 mm 0 mps 587 mmHg 97%
    21:00 +13°C° 0.3 mm 0 mps 587 mmHg 97%
    22:00 +13°C° 0.3 mm 0 mps 587 mmHg 97%
    23:00 +13°C° 0.1 mm 1 mps 587 mmHg 97%

    15 April, Wednesday

    Time Temperature Precipitation Wind Pressure Humidity
    00:00 +13°C° 0.1 mm 1 mps 587 mmHg 97%
    01:00 +13°C° 0.1 mm 1 mps 586 mmHg 97%
    02:00 +13°C° 0 mm 1 mps 586 mmHg 97%
    03:00 +12°C° 0 mm 1 mps 586 mmHg 97%
    04:00 +12°C° 0 mm 1 mps 586 mmHg 97%
    05:00 +12°C° 0 mm 0 mps 586 mmHg 96%
    06:00 +12°C° 0 mm 0 mps 587 mmHg 95%
    07:00 +13°C° 0 mm 0 mps 588 mmHg 94%
    08:00 +15°C° 0.6 mm 0 mps 588 mmHg 91%
    09:00 +16°C° 0.6 mm 0 mps 589 mmHg 87%
    10:00 +20°C° 0.6 mm 1 mps 590 mmHg 84%
    11:00 +20°C° 1.4 mm 1 mps 589 mmHg 85%
    12:00 +20°C° 1.4 mm 1 mps 589 mmHg 85%
    13:00 +20°C° 1.4 mm 1 mps 588 mmHg 85%
    14:00 +20°C° 1.4 mm 1 mps 588 mmHg 87%
    15:00 +19°C° 1.4 mm 1 mps 587 mmHg 89%
    16:00 +19°C° 1.4 mm 1 mps 586 mmHg 90%
    17:00 +18°C° 0.4 mm 1 mps 586 mmHg 93%
    18:00 +14°C° 0.4 mm 0 mps 586 mmHg 95%
    19:00 +13°C° 0.4 mm 0 mps 586 mmHg 98%
    20:00 +13°C° 0 mm 0 mps 587 mmHg 98%
    21:00 +13°C° 0 mm 0 mps 587 mmHg 97%
    22:00 +12°C° 0 mm 0 mps 587 mmHg 97%
    23:00 +12°C° 0 mm 0 mps 587 mmHg 97%
    Show more